STARLINK-2490 (48147 NORAD) Tracking and Keplerian Element Data

This shows tracking and keplerian element data for the satellite.

Feedback or suggestion? Click here.




ElementValue
Catalog48147
NameSTARLINK-2490
Epoch Orbit180
Epoch Day136.91668981
Epoch Year2021
RAAN148.3557
Inclination53.0462
Eccentricity0.0001538
Argument of Perigee52.8174
Mean Anonmoly183.8294
Mean Motion15.29295328
Decay Rate-0.01067803
L11 48147U 21027BH 21136.91668981 -.01067803 00000-0 -40434-1 0 9990
L22 48147 53.0462 148.3557 0001538 52.8174 183.8294 15.29295328 1803

Live tracking and technical data element details for STARLINK-2490 (NORAD 48147). STARLINK-2490 can be tracked NOW for your location showing map with azimuth and elevation plus other details from your city location.

Track the satellite on the map from your city or location and see movement details for azimuth, elevation, latitude, longitude, range, height, and movement on the map or in text.







IsCatalogInMostPopularTable: catalog: 48147, numindb: 14
Update: records affected: 1



GetName: 48147 STARLINK-2490

Hit Count: updated at: Mon, 17 May 2021 16:48:17 GMT